Regional Weather Roundup
Issued by NWS

Home | Current Version | Previous Version | Text Only | Print | Product List | Glossary Off
Versions: 1 2 3 4 5 6 7 8 9 10 11 12 13 14 15 16 17 18 19 20 21 22 23 24 25 26 27 28 29 30 31 32 33 34 35 36 37 38 39 40 41 42 43 44 45 46 47 48 49 50

000
ASUS45 KSLC 050010
RWRUT

UTAH REGIONAL WEATHER ROUNDUP
NATIONAL WEATHER SERVICE SALT LAKE CITY UT
600 PM MDT MON MAY 04 2015

UTZ001>011-023>025-050100-

NORTHERN UTAH

CITY           SKY/WX    TMP DP  RH WIND       PRES   REMARKS
BRIGHAM CITY   CLOUDY    60  47  62 N16       29.90S
HILL AFB       PTSUNNY   59  47  63 E13G22    29.88F
LOGAN          CLOUDY    61  48  62 SW7       29.90R
OGDEN          CLOUDY    66  40  38 NE9G20    29.86F
PROVO AIRPORT  PTSUNNY   70  45  40 W9        29.86F
SALT LAKE CITY CLOUDY    70  40  33 E6        29.85F
VERNAL         CLOUDY    68  37  32 NE7       29.92S
WENDOVER       CLOUDY    72  34  25 W14       29.84S
HEBER CITY     CLOUDY    64  36  34 CALM      29.93F
WEST JORDAN    PTSUNNY   64  48  55 W5        29.88F

$$

UTZ012>022-026-027-050100-

SOUTHERN/CENTRAL UTAH

CITY           SKY/WX    TMP DP  RH WIND       PRES   REMARKS
BLANDING       PTSUNNY   64  37  37 S5        30.00S
BRYCE CANYON   LGT RAIN  47  42  83 SE7       30.03R
CEDAR CITY     PTSUNNY   57  42  57 SW13      29.92R
DELTA          CLOUDY    69  36  29 SW15G22   29.85S
HANKSVILLE     PTSUNNY   66  41  39 S17G24    29.88R
MILFORD        CLOUDY    71  39  31 W9        29.86F
MOAB/CYNLANDS  PTSUNNY   69  47  45 E6        29.83S
PRICE          PTSUNNY   69  36  29 SE7       29.89F
ST GEORGE      CLOUDY    77  39  25 W10G16    29.81F
KANAB          CLOUDY    66  37  34 S17       29.93S

$$

REGIONAL REPORTS     COLORADO/ARIZONA

CITY           SKY/WX    TMP DP  RH WIND       PRES   REMARKS
CRAIG, CO      CLOUDY    65  36  34 N7        29.99S
GRAND JUNCTION CLOUDY    65  41  41 E6        29.88F
RIFLE          CLOUDY    63  43  48 NE3       29.94S
MONTROSE       CLOUDY    67  34  29 NE3       29.95S
CORTEZ         MOSUNNY   60  42  51 NE15      29.95R
PAGE, AZ       PTSUNNY   70  40  33 CALM      29.85F
GRAND CANYON   PTSUNNY   54  41  61 NW8       29.98F
KINGMAN        CLOUDY    62  48  60 SE13      29.91F
FLAGSTAFF      CLOUDY    53  38  56 S10       29.99S

$$

REGIONAL REPORTS    NEVADA/IDAHO/WYOMING

CITY           SKY/WX    TMP DP  RH WIND       PRES   REMARKS
LAS VEGAS, NV  CLOUDY    74  41  30 S15       29.75F
ELY            CLOUDY    60  36  40 W5        29.97F
ELKO           CLOUDY    66  33  29 S23G30    29.88R
POCATELLO, ID  MOSUNNY   74  30  19 S10       29.86F
BURLEY         CLOUDY    69  42  37 SW8       29.82F
EVANSTON, WY   PTSUNNY   53  41  63 NW9       30.04S
ROCK SPRINGS   CLOUDY    60  33  36 SW5       29.99S
KEMMERER       CLOUDY    54  39  58 NW9       30.04F

$$



USA.gov is the U.S. government's official web portal to all federal, state and local government web resources and services.